owner,sensor,date,latitude,longitude,sea_surface_height_above_sea_level,qcFlag 
TCOON,ioos:station:TCOON:013:1,2017-05-01T00:18:00Z,27.4847,-97.3181,0.878,1111122 
TCOON,ioos:station:TCOON:013:1,2017-05-01T01:18:00Z,27.4847,-97.3181,0.884,1111122 
TCOON,ioos:station:TCOON:013:1,2017-05-01T02:18:00Z,27.4847,-97.3181,0.885,1111122 
TCOON,ioos:station:TCOON:013:1,2017-05-01T03:18:00Z,27.4847,-97.3181,0.886,1111122 
TCOON,ioos:station:TCOON:013:1,2017-05-01T04:24:00Z,27.4847,-97.3181,0.884,1111122 
TCOON,ioos:station:TCOON:013:1,2017-05-01T05:18:00Z,27.4847,-97.3181,0.881,1111122 
TCOON,ioos:station:TCOON:013:1,2017-05-01T06:18:00Z,27.4847,-97.3181,0.874,1111122 
TCOON,ioos:station:TCOON:013:1,2017-05-01T07:18:00Z,27.4847,-97.3181,0.868,1111122 
TCOON,ioos:station:TCOON:013:1,2017-05-01T08:24:00Z,27.4847,-97.3181,0.858,1111122 
TCOON,ioos:station:TCOON:013:1,2017-05-01T09:24:00Z,27.4847,-97.3181,0.85,1111122 
TCOON,ioos:station:TCOON:013:1,2017-05-01T10:24:00Z,27.4847,-97.3181,0.842,1111122 
TCOON,ioos:station:TCOON:013:1,2017-05-01T11:24:00Z,27.4847,-97.3181,0.833,1111122 
TCOON,ioos:station:TCOON:013:1,2017-05-01T12:24:00Z,27.4847,-97.3181,0.824,1111122 
TCOON,ioos:station:TCOON:013:1,2017-05-01T13:18:00Z,27.4847,-97.3181,0.817,1111122 
TCOON,ioos:station:TCOON:013:1,2017-05-01T14:18:00Z,27.4847,-97.3181,0.818,1111122 
TCOON,ioos:station:TCOON:013:1,2017-05-01T15:18:00Z,27.4847,-97.3181,0.813,1111122 
TCOON,ioos:station:TCOON:013:1,2017-05-01T16:18:00Z,27.4847,-97.3181,0.817,1111122 
TCOON,ioos:station:TCOON:013:1,2017-05-01T17:18:00Z,27.4847,-97.3181,0.821,1111122 
TCOON,ioos:station:TCOON:013:1,2017-05-01T18:18:00Z,27.4847,-97.3181,0.823,1111122 
TCOON,ioos:station:TCOON:013:1,2017-05-01T19:18:00Z,27.4847,-97.3181,0.825,1111122 
TCOON,ioos:station:TCOON:013:1,2017-05-01T20:18:00Z,27.4847,-97.3181,0.828,1111122 
TCOON,ioos:station:TCOON:013:1,2017-05-01T21:18:00Z,27.4847,-97.3181,0.829,1111122 
TCOON,ioos:station:TCOON:013:1,2017-05-01T22:18:00Z,27.4847,-97.3181,0.831,1111122 
TCOON,ioos:station:TCOON:013:1,2017-05-01T23:18:00Z,27.4847,-97.3181,0.831,1111122 
TCOON,ioos:station:TCOON:013:1,2017-05-02T00:18:00Z,27.4847,-97.3181,0.825,1111122 
TCOON,ioos:station:TCOON:013:1,2017-05-02T01:18:00Z,27.4847,-97.3181,0.82,1111122 
TCOON,ioos:station:TCOON:013:1,2017-05-02T02:18:00Z,27.4847,-97.3181,0.813,1111122 
TCOON,ioos:station:TCOON:013:1,2017-05-02T03:18:00Z,27.4847,-97.3181,0.81,1111122 
TCOON,ioos:station:TCOON:013:1,2017-05-02T04:18:00Z,27.4847,-97.3181,0.81,1111122 
TCOON,ioos:station:TCOON:013:1,2017-05-02T05:18:00Z,27.4847,-97.3181,0.81,1111122 
TCOON,ioos:station:TCOON:013:1,2017-05-02T06:18:00Z,27.4847,-97.3181,0.809,1111122 
TCOON,ioos:station:TCOON:013:1,2017-05-02T07:18:00Z,27.4847,-97.3181,0.808,1111122 
TCOON,ioos:station:TCOON:013:1,2017-05-02T08:18:00Z,27.4847,-97.3181,0.807,1111122 
TCOON,ioos:station:TCOON:013:1,2017-05-02T09:18:00Z,27.4847,-97.3181,0.805,1111122 
TCOON,ioos:station:TCOON:013:1,2017-05-02T10:18:00Z,27.4847,-97.3181,0.802,1111122 
TCOON,ioos:station:TCOON:013:1,2017-05-02T11:18:00Z,27.4847,-97.3181,0.799,1111122 
TCOON,ioos:station:TCOON:013:1,2017-05-02T12:18:00Z,27.4847,-97.3181,0.794,1111122 
TCOON,ioos:station:TCOON:013:1,2017-05-02T13:24:00Z,27.4847,-97.3181,0.789,1111122 
TCOON,ioos:station:TCOON:013:1,2017-05-02T16:54:00Z,27.4847,-97.3181,0.775,1111122 
TCOON,ioos:station:TCOON:013:1,2017-05-02T20:42:00Z,27.4847,-97.3181,0.775,1111122 
TCOON,ioos:station:TCOON:013:1,2017-05-02T21:18:00Z,27.4847,-97.3181,0.776,1111122 
TCOON,ioos:station:TCOON:013:1,2017-05-02T22:18:00Z,27.4847,-97.3181,0.78,1111122 
TCOON,ioos:station:TCOON:013:1,2017-05-02T23:24:00Z,27.4847,-97.3181,0.786,1111122 
TCOON,ioos:station:TCOON:013:1,2017-05-03T00:18:00Z,27.4847,-97.3181,0.787,1111122 
TCOON,ioos:station:TCOON:013:1,2017-05-03T01:18:00Z,27.4847,-97.3181,0.794,1111122 
TCOON,ioos:station:TCOON:013:1,2017-05-03T02:18:00Z,27.4847,-97.3181,0.801,1111122 
TCOON,ioos:station:TCOON:013:1,2017-05-03T03:18:00Z,27.4847,-97.3181,0.807,1111122 
TCOON,ioos:station:TCOON:013:1,2017-05-03T04:18:00Z,27.4847,-97.3181,0.815,1111122 
TCOON,ioos:station:TCOON:013:1,2017-05-03T05:18:00Z,27.4847,-97.3181,0.824,1111122 
TCOON,ioos:station:TCOON:013:1,2017-05-03T06:18:00Z,27.4847,-97.3181,0.834,1111122 
TCOON,ioos:station:TCOON:013:1,2017-05-03T07:18:00Z,27.4847,-97.3181,0.84,1111122 
TCOON,ioos:station:TCOON:013:1,2017-05-03T08:18:00Z,27.4847,-97.3181,0.846,1111122 
TCOON,ioos:station:TCOON:013:1,2017-05-03T09:18:00Z,27.4847,-97.3181,0.851,1111122 
TCOON,ioos:station:TCOON:013:1,2017-05-03T10:18:00Z,27.4847,-97.3181,0.853,1111122 
TCOON,ioos:station:TCOON:013:1,2017-05-03T11:18:00Z,27.4847,-97.3181,0.854,1111122 
TCOON,ioos:station:TCOON:013:1,2017-05-03T12:18:00Z,27.4847,-97.3181,0.848,1111122 
TCOON,ioos:station:TCOON:013:1,2017-05-03T13:18:00Z,27.4847,-97.3181,0.847,1111122 
TCOON,ioos:station:TCOON:013:1,2017-05-03T14:18:00Z,27.4847,-97.3181,0.847,1111122 
TCOON,ioos:station:TCOON:013:1,2017-05-03T15:18:00Z,27.4847,-97.3181,0.847,1111122 
TCOON,ioos:station:TCOON:013:1,2017-05-03T16:18:00Z,27.4847,-97.3181,0.843,1111122 
TCOON,ioos:station:TCOON:013:1,2017-05-03T17:18:00Z,27.4847,-97.3181,0.842,1111122 
TCOON,ioos:station:TCOON:013:1,2017-05-03T18:18:00Z,27.4847,-97.3181,0.842,1111122 
TCOON,ioos:station:TCOON:013:1,2017-05-03T19:18:00Z,27.4847,-97.3181,0.839,1111122 
TCOON,ioos:station:TCOON:013:1,2017-05-03T20:18:00Z,27.4847,-97.3181,0.837,1111122 
TCOON,ioos:station:TCOON:013:1,2017-05-03T21:18:00Z,27.4847,-97.3181,0.841,1111122 
TCOON,ioos:station:TCOON:013:1,2017-05-04T01:18:00Z,27.4847,-97.3181,0.865,1111122 
TCOON,ioos:station:TCOON:013:1,2017-05-04T02:18:00Z,27.4847,-97.3181,0.867,1111122 
TCOON,ioos:station:TCOON:013:1,2017-05-04T03:18:00Z,27.4847,-97.3181,0.869,1111122 
TCOON,ioos:station:TCOON:013:1,2017-05-04T04:18:00Z,27.4847,-97.3181,0.876,1111122 
TCOON,ioos:station:TCOON:013:1,2017-05-04T05:18:00Z,27.4847,-97.3181,0.892,1111122 
TCOON,ioos:station:TCOON:013:1,2017-05-04T06:18:00Z,27.4847,-97.3181,0.89,1111122 
TCOON,ioos:station:TCOON:013:1,2017-05-04T07:18:00Z,27.4847,-97.3181,0.895,1111122 
TCOON,ioos:station:TCOON:013:1,2017-05-04T08:18:00Z,27.4847,-97.3181,0.897,1111122 
TCOON,ioos:station:TCOON:013:1,2017-05-04T09:18:00Z,27.4847,-97.3181,0.899,1111122 
TCOON,ioos:station:TCOON:013:1,2017-05-04T10:18:00Z,27.4847,-97.3181,0.892,1111122 
TCOON,ioos:station:TCOON:013:1,2017-05-04T11:18:00Z,27.4847,-97.3181,0.894,1111122 
TCOON,ioos:station:TCOON:013:1,2017-05-04T12:18:00Z,27.4847,-97.3181,0.897,1111122 
TCOON,ioos:station:TCOON:013:1,2017-05-04T13:18:00Z,27.4847,-97.3181,0.898,1111122 
TCOON,ioos:station:TCOON:013:1,2017-05-04T14:18:00Z,27.4847,-97.3181,0.89,1111122 
TCOON,ioos:station:TCOON:013:1,2017-05-04T15:18:00Z,27.4847,-97.3181,0.888,1111122 
TCOON,ioos:station:TCOON:013:1,2017-05-04T16:18:00Z,27.4847,-97.3181,0.889,1111122 
TCOON,ioos:station:TCOON:013:1,2017-05-04T17:18:00Z,27.4847,-97.3181,0.885,1111122 
TCOON,ioos:station:TCOON:013:1,2017-05-04T18:12:00Z,27.4847,-97.3181,0.876,1111122 
TCOON,ioos:station:TCOON:013:1,2017-05-04T19:18:00Z,27.4847,-97.3181,0.878,1111122 
TCOON,ioos:station:TCOON:013:1,2017-05-04T20:12:00Z,27.4847,-97.3181,0.87,1111122 
TCOON,ioos:station:TCOON:013:1,2017-05-04T21:18:00Z,27.4847,-97.3181,0.876,1111122 
TCOON,ioos:station:TCOON:013:1,2017-05-04T22:18:00Z,27.4847,-97.3181,0.869,1111122 
TCOON,ioos:station:TCOON:013:1,2017-05-04T23:18:00Z,27.4847,-97.3181,0.877,1111122 
TCOON,ioos:station:TCOON:013:1,2017-05-05T00:18:00Z,27.4847,-97.3181,0.874,1111122 
TCOON,ioos:station:TCOON:013:1,2017-05-05T01:12:00Z,27.4847,-97.3181,0.879,1111122 
TCOON,ioos:station:TCOON:013:1,2017-05-05T02:12:00Z,27.4847,-97.3181,0.871,1111122 
TCOON,ioos:station:TCOON:013:1,2017-05-05T03:18:00Z,27.4847,-97.3181,0.866,1111122 
TCOON,ioos:station:TCOON:013:1,2017-05-05T04:18:00Z,27.4847,-97.3181,0.856,1111122 
TCOON,ioos:station:TCOON:013:1,2017-05-05T05:18:00Z,27.4847,-97.3181,0.849,1111122 
TCOON,ioos:station:TCOON:013:1,2017-05-05T06:18:00Z,27.4847,-97.3181,0.842,1111122 
TCOON,ioos:station:TCOON:013:1,2017-05-05T07:18:00Z,27.4847,-97.3181,0.839,1111122 
TCOON,ioos:station:TCOON:013:1,2017-05-05T08:12:00Z,27.4847,-97.3181,0.834,1111122 
TCOON,ioos:station:TCOON:013:1,2017-05-05T09:18:00Z,27.4847,-97.3181,0.83,1111122 
TCOON,ioos:station:TCOON:013:1,2017-05-05T10:18:00Z,27.4847,-97.3181,0.824,1111122 
TCOON,ioos:station:TCOON:013:1,2017-05-05T11:18:00Z,27.4847,-97.3181,0.825,1111122 
TCOON,ioos:station:TCOON:013:1,2017-05-05T12:12:00Z,27.4847,-97.3181,0.822,1111122 
TCOON,ioos:station:TCOON:013:1,2017-05-05T13:12:00Z,27.4847,-97.3181,0.817,1111122 
TCOON,ioos:station:TCOON:013:1,2017-05-05T14:18:00Z,27.4847,-97.3181,0.812,1111122 
TCOON,ioos:station:TCOON:013:1,2017-05-05T16:24:00Z,27.4847,-97.3181,0.802,1111122 
TCOON,ioos:station:TCOON:013:1,2017-05-05T17:18:00Z,27.4847,-97.3181,0.799,1111122 
TCOON,ioos:station:TCOON:013:1,2017-05-05T18:30:00Z,27.4847,-97.3181,0.795,1111122 
TCOON,ioos:station:TCOON:013:1,2017-05-05T19:18:00Z,27.4847,-97.3181,0.784,1111122 
TCOON,ioos:station:TCOON:013:1,2017-05-05T21:06:00Z,27.4847,-97.3181,0.773,1111122 
TCOON,ioos:station:TCOON:013:1,2017-05-05T21:36:00Z,27.4847,-97.3181,0.776,1111122 
TCOON,ioos:station:TCOON:013:1,2017-05-05T23:00:00Z,27.4847,-97.3181,0.782,1111122 
TCOON,ioos:station:TCOON:013:1,2017-05-05T23:36:00Z,27.4847,-97.3181,0.772,1111122 
TCOON,ioos:station:TCOON:013:1,2017-05-06T00:30:00Z,27.4847,-97.3181,0.768,1111122 
TCOON,ioos:station:TCOON:013:1,2017-05-06T02:00:00Z,27.4847,-97.3181,0.769,1111122 
TCOON,ioos:station:TCOON:013:1,2017-05-06T02:24:00Z,27.4847,-97.3181,0.77,1111122 
TCOON,ioos:station:TCOON:013:1,2017-05-06T03:30:00Z,27.4847,-97.3181,0.772,1111122 
TCOON,ioos:station:TCOON:013:1,2017-05-06T04:42:00Z,27.4847,-97.3181,0.773,1111122 
TCOON,ioos:station:TCOON:013:1,2017-05-06T06:00:00Z,27.4847,-97.3181,0.774,1111122 
TCOON,ioos:station:TCOON:013:1,2017-05-06T06:30:00Z,27.4847,-97.3181,0.775,1111122 
TCOON,ioos:station:TCOON:013:1,2017-05-06T12:30:00Z,27.4847,-97.3181,0.773,1111122 
TCOON,ioos:station:TCOON:013:1,2017-05-06T13:36:00Z,27.4847,-97.3181,0.769,1111122 
TCOON,ioos:station:TCOON:013:1,2017-05-07T10:48:00Z,27.4847,-97.3181,0.713,1111122 
TCOON,ioos:station:TCOON:013:1,2017-05-07T13:06:00Z,27.4847,-97.3181,0.71,1111122 
TCOON,ioos:station:TCOON:013:1,2017-05-07T22:36:00Z,27.4847,-97.3181,0.706,1111122 
TCOON,ioos:station:TCOON:013:1,2017-05-08T02:06:00Z,27.4847,-97.3181,0.688,1111122 
TCOON,ioos:station:TCOON:013:1,2017-05-08T02:36:00Z,27.4847,-97.3181,0.686,1111122 
TCOON,ioos:station:TCOON:013:1,2017-05-08T03:54:00Z,27.4847,-97.3181,0.682,1111122 
TCOON,ioos:station:TCOON:013:1,2017-05-08T04:36:00Z,27.4847,-97.3181,0.684,1111122 
TCOON,ioos:station:TCOON:013:1,2017-05-08T05:30:00Z,27.4847,-97.3181,0.681,1111122 
TCOON,ioos:station:TCOON:013:1,2017-05-08T06:30:00Z,27.4847,-97.3181,0.678,1111122 
TCOON,ioos:station:TCOON:013:1,2017-05-08T07:24:00Z,27.4847,-97.3181,0.681,1111122 
TCOON,ioos:station:TCOON:013:1,2017-05-08T08:24:00Z,27.4847,-97.3181,0.68,1111122 
TCOON,ioos:station:TCOON:013:1,2017-05-08T09:24:00Z,27.4847,-97.3181,0.678,1111122 
TCOON,ioos:station:TCOON:013:1,2017-05-08T10:24:00Z,27.4847,-97.3181,0.685,1111122 
TCOON,ioos:station:TCOON:013:1,2017-05-08T11:24:00Z,27.4847,-97.3181,0.673,1111122 
TCOON,ioos:station:TCOON:013:1,2017-05-08T12:24:00Z,27.4847,-97.3181,0.673,1111122 
TCOON,ioos:station:TCOON:013:1,2017-05-08T13:24:00Z,27.4847,-97.3181,0.673,1111122 
TCOON,ioos:station:TCOON:013:1,2017-05-08T14:30:00Z,27.4847,-97.3181,0.676,1111122 
TCOON,ioos:station:TCOON:013:1,2017-05-08T15:24:00Z,27.4847,-97.3181,0.676,1111122 
TCOON,ioos:station:TCOON:013:1,2017-05-08T16:24:00Z,27.4847,-97.3181,0.674,1111122 
TCOON,ioos:station:TCOON:013:1,2017-05-08T17:30:00Z,27.4847,-97.3181,0.672,1111122 
TCOON,ioos:station:TCOON:013:1,2017-05-08T18:24:00Z,27.4847,-97.3181,0.67,1111122 
TCOON,ioos:station:TCOON:013:1,2017-05-08T19:24:00Z,27.4847,-97.3181,0.669,1111122 
TCOON,ioos:station:TCOON:013:1,2017-05-08T20:24:00Z,27.4847,-97.3181,0.671,1111122 
TCOON,ioos:station:TCOON:013:1,2017-05-08T21:24:00Z,27.4847,-97.3181,0.669,1111122 
TCOON,ioos:station:TCOON:013:1,2017-05-08T22:24:00Z,27.4847,-97.3181,0.668,1111122 
TCOON,ioos:station:TCOON:013:1,2017-05-08T23:24:00Z,27.4847,-97.3181,0.669,1111122 
TCOON,ioos:station:TCOON:013:1,2017-05-09T00:42:00Z,27.4847,-97.3181,0.668,1111122 
TCOON,ioos:station:TCOON:013:1,2017-05-09T01:30:00Z,27.4847,-97.3181,0.668,1111122 
TCOON,ioos:station:TCOON:013:1,2017-05-09T02:24:00Z,27.4847,-97.3181,0.669,1111122 
TCOON,ioos:station:TCOON:013:1,2017-05-09T03:24:00Z,27.4847,-97.3181,0.669,1111122 
TCOON,ioos:station:TCOON:013:1,2017-05-09T04:24:00Z,27.4847,-97.3181,0.665,1111122 
TCOON,ioos:station:TCOON:013:1,2017-05-09T05:24:00Z,27.4847,-97.3181,0.664,1111122 
TCOON,ioos:station:TCOON:013:1,2017-05-09T06:24:00Z,27.4847,-97.3181,0.659,1111122 
TCOON,ioos:station:TCOON:013:1,2017-05-09T07:24:00Z,27.4847,-97.3181,0.663,1111122 
TCOON,ioos:station:TCOON:013:1,2017-05-09T08:24:00Z,27.4847,-97.3181,0.662,1111122 
TCOON,ioos:station:TCOON:013:1,2017-05-09T09:24:00Z,27.4847,-97.3181,0.656,1111122 
TCOON,ioos:station:TCOON:013:1,2017-05-09T10:24:00Z,27.4847,-97.3181,0.655,1111122 
TCOON,ioos:station:TCOON:013:1,2017-05-09T11:24:00Z,27.4847,-97.3181,0.657,1111122 
TCOON,ioos:station:TCOON:013:1,2017-05-09T12:36:00Z,27.4847,-97.3181,0.657,1111122 
TCOON,ioos:station:TCOON:013:1,2017-05-09T13:42:00Z,27.4847,-97.3181,0.66,1111122 
TCOON,ioos:station:TCOON:013:1,2017-05-09T14:24:00Z,27.4847,-97.3181,0.664,1111122 
TCOON,ioos:station:TCOON:013:1,2017-05-09T15:24:00Z,27.4847,-97.3181,0.67,1111122 
TCOON,ioos:station:TCOON:013:1,2017-05-09T16:18:00Z,27.4847,-97.3181,0.674,1111122 
TCOON,ioos:station:TCOON:013:1,2017-05-09T17:24:00Z,27.4847,-97.3181,0.677,1111122 
TCOON,ioos:station:TCOON:013:1,2017-05-09T18:24:00Z,27.4847,-97.3181,0.681,1111122 
TCOON,ioos:station:TCOON:013:1,2017-05-09T19:30:00Z,27.4847,-97.3181,0.681,1111122 
TCOON,ioos:station:TCOON:013:1,2017-05-09T20:18:00Z,27.4847,-97.3181,0.68,1111122 
TCOON,ioos:station:TCOON:013:1,2017-05-09T21:18:00Z,27.4847,-97.3181,0.677,1111122 
TCOON,ioos:station:TCOON:013:1,2017-05-09T22:18:00Z,27.4847,-97.3181,0.679,1111122 
TCOON,ioos:station:TCOON:013:1,2017-05-09T23:18:00Z,27.4847,-97.3181,0.676,1111122 
TCOON,ioos:station:TCOON:013:1,2017-05-10T00:18:00Z,27.4847,-97.3181,0.674,1111122 
TCOON,ioos:station:TCOON:013:1,2017-05-10T01:18:00Z,27.4847,-97.3181,0.671,1111122 
TCOON,ioos:station:TCOON:013:1,2017-05-10T02:18:00Z,27.4847,-97.3181,0.671,1111122 
TCOON,ioos:station:TCOON:013:1,2017-05-10T03:18:00Z,27.4847,-97.3181,0.673,1111122 
TCOON,ioos:station:TCOON:013:1,2017-05-10T04:18:00Z,27.4847,-97.3181,0.671,1111122 
TCOON,ioos:station:TCOON:013:1,2017-05-10T05:18:00Z,27.4847,-97.3181,0.672,1111122 
TCOON,ioos:station:TCOON:013:1,2017-05-10T06:18:00Z,27.4847,-97.3181,0.673,1111122 
TCOON,ioos:station:TCOON:013:1,2017-05-10T07:18:00Z,27.4847,-97.3181,0.671,1111122 
TCOON,ioos:station:TCOON:013:1,2017-05-10T08:18:00Z,27.4847,-97.3181,0.669,1111122 
TCOON,ioos:station:TCOON:013:1,2017-05-10T09:18:00Z,27.4847,-97.3181,0.67,1111122 
TCOON,ioos:station:TCOON:013:1,2017-05-10T10:18:00Z,27.4847,-97.3181,0.67,1111122 
TCOON,ioos:station:TCOON:013:1,2017-05-10T11:18:00Z,27.4847,-97.3181,0.668,1111122 
TCOON,ioos:station:TCOON:013:1,2017-05-10T12:18:00Z,27.4847,-97.3181,0.665,1111122 
TCOON,ioos:station:TCOON:013:1,2017-05-10T13:18:00Z,27.4847,-97.3181,0.665,1111122 
TCOON,ioos:station:TCOON:013:1,2017-05-10T14:18:00Z,27.4847,-97.3181,0.664,1111122 
TCOON,ioos:station:TCOON:013:1,2017-05-10T15:18:00Z,27.4847,-97.3181,0.669,1111122 
TCOON,ioos:station:TCOON:013:1,2017-05-10T16:18:00Z,27.4847,-97.3181,0.671,1111122 
TCOON,ioos:station:TCOON:013:1,2017-05-10T17:18:00Z,27.4847,-97.3181,0.675,1111122 
TCOON,ioos:station:TCOON:013:1,2017-05-10T18:42:00Z,27.4847,-97.3181,0.673,1111122 
TCOON,ioos:station:TCOON:013:1,2017-05-10T19:18:00Z,27.4847,-97.3181,0.675,1111122 
TCOON,ioos:station:TCOON:013:1,2017-05-10T20:18:00Z,27.4847,-97.3181,0.68,1111122 
TCOON,ioos:station:TCOON:013:1,2017-05-10T21:18:00Z,27.4847,-97.3181,0.678,1111122 
TCOON,ioos:station:TCOON:013:1,2017-05-10T22:18:00Z,27.4847,-97.3181,0.678,1111122 
TCOON,ioos:station:TCOON:013:1,2017-05-10T23:18:00Z,27.4847,-97.3181,0.674,1111122 
TCOON,ioos:station:TCOON:013:1,2017-05-11T00:18:00Z,27.4847,-97.3181,0.673,1111122 
TCOON,ioos:station:TCOON:013:1,2017-05-11T01:24:00Z,27.4847,-97.3181,0.676,1111122 
TCOON,ioos:station:TCOON:013:1,2017-05-11T02:18:00Z,27.4847,-97.3181,0.673,1111122 
TCOON,ioos:station:TCOON:013:1,2017-05-11T03:18:00Z,27.4847,-97.3181,0.675,1111122 
TCOON,ioos:station:TCOON:013:1,2017-05-11T04:18:00Z,27.4847,-97.3181,0.675,1111122 
TCOON,ioos:station:TCOON:013:1,2017-05-11T05:18:00Z,27.4847,-97.3181,0.674,1111122 
TCOON,ioos:station:TCOON:013:1,2017-05-11T06:18:00Z,27.4847,-97.3181,0.671,1111122 
TCOON,ioos:station:TCOON:013:1,2017-05-11T07:18:00Z,27.4847,-97.3181,0.666,1111122 
TCOON,ioos:station:TCOON:013:1,2017-05-11T08:18:00Z,27.4847,-97.3181,0.663,1111122 
TCOON,ioos:station:TCOON:013:1,2017-05-11T09:18:00Z,27.4847,-97.3181,0.664,1111122 
TCOON,ioos:station:TCOON:013:1,2017-05-11T10:18:00Z,27.4847,-97.3181,0.658,1111122 
TCOON,ioos:station:TCOON:013:1,2017-05-11T11:18:00Z,27.4847,-97.3181,0.661,1111122 
TCOON,ioos:station:TCOON:013:1,2017-05-11T12:18:00Z,27.4847,-97.3181,0.66,1111122 
TCOON,ioos:station:TCOON:013:1,2017-05-11T13:18:00Z,27.4847,-97.3181,0.66,1111122 
TCOON,ioos:station:TCOON:013:1,2017-05-11T14:18:00Z,27.4847,-97.3181,0.664,1111122 
TCOON,ioos:station:TCOON:013:1,2017-05-11T15:18:00Z,27.4847,-97.3181,0.671,1111122 
TCOON,ioos:station:TCOON:013:1,2017-05-11T16:18:00Z,27.4847,-97.3181,0.681,1111122 
TCOON,ioos:station:TCOON:013:1,2017-05-11T17:18:00Z,27.4847,-97.3181,0.685,1111122 
TCOON,ioos:station:TCOON:013:1,2017-05-11T18:18:00Z,27.4847,-97.3181,0.685,1111122 
TCOON,ioos:station:TCOON:013:1,2017-05-11T19:18:00Z,27.4847,-97.3181,0.687,1111122 
TCOON,ioos:station:TCOON:013:1,2017-05-11T20:18:00Z,27.4847,-97.3181,0.687,1111122 
TCOON,ioos:station:TCOON:013:1,2017-05-11T22:24:00Z,27.4847,-97.3181,0.686,1111122 
TCOON,ioos:station:TCOON:013:1,2017-05-11T23:36:00Z,27.4847,-97.3181,0.686,1111122 
TCOON,ioos:station:TCOON:013:1,2017-05-12T05:00:00Z,27.4847,-97.3181,0.691,1111122 
TCOON,ioos:station:TCOON:013:1,2017-05-12T05:54:00Z,27.4847,-97.3181,0.688,1111122 
TCOON,ioos:station:TCOON:013:1,2017-05-12T07:18:00Z,27.4847,-97.3181,0.686,1111122 
TCOON,ioos:station:TCOON:013:1,2017-05-12T08:18:00Z,27.4847,-97.3181,0.684,1111122 
TCOON,ioos:station:TCOON:013:1,2017-05-12T09:18:00Z,27.4847,-97.3181,0.679,1111122 
TCOON,ioos:station:TCOON:013:1,2017-05-12T10:18:00Z,27.4847,-97.3181,0.674,1111122 
TCOON,ioos:station:TCOON:013:1,2017-05-12T11:18:00Z,27.4847,-97.3181,0.67,1111122 
TCOON,ioos:station:TCOON:013:1,2017-05-12T12:18:00Z,27.4847,-97.3181,0.665,1111122 
TCOON,ioos:station:TCOON:013:1,2017-05-12T13:18:00Z,27.4847,-97.3181,0.662,1111122 
TCOON,ioos:station:TCOON:013:1,2017-05-12T14:24:00Z,27.4847,-97.3181,0.673,1111122 
TCOON,ioos:station:TCOON:013:1,2017-05-12T15:24:00Z,27.4847,-97.3181,0.671,1111122 
TCOON,ioos:station:TCOON:013:1,2017-05-12T16:18:00Z,27.4847,-97.3181,0.667,1111122 
TCOON,ioos:station:TCOON:013:1,2017-05-12T17:18:00Z,27.4847,-97.3181,0.673,1111122 
TCOON,ioos:station:TCOON:013:1,2017-05-12T18:18:00Z,27.4847,-97.3181,0.674,1111122 
TCOON,ioos:station:TCOON:013:1,2017-05-12T19:30:00Z,27.4847,-97.3181,0.682,1111122 
TCOON,ioos:station:TCOON:013:1,2017-05-12T20:18:00Z,27.4847,-97.3181,0.691,1111122 
TCOON,ioos:station:TCOON:013:1,2017-05-12T22:36:00Z,27.4847,-97.3181,0.68,1111122 
TCOON,ioos:station:TCOON:013:1,2017-05-14T14:18:00Z,27.4847,-97.3181,0.639,1111122 
TCOON,ioos:station:TCOON:013:1,2017-05-14T15:18:00Z,27.4847,-97.3181,0.633,1111122 
TCOON,ioos:station:TCOON:013:1,2017-05-14T16:24:00Z,27.4847,-97.3181,0.633,1111122 
TCOON,ioos:station:TCOON:013:1,2017-05-14T17:42:00Z,27.4847,-97.3181,0.633,1111122 
TCOON,ioos:station:TCOON:013:1,2017-05-14T18:36:00Z,27.4847,-97.3181,0.632,1111122 
TCOON,ioos:station:TCOON:013:1,2017-05-14T19:18:00Z,27.4847,-97.3181,0.635,1111122 
TCOON,ioos:station:TCOON:013:1,2017-05-14T20:18:00Z,27.4847,-97.3181,0.638,1111122 
TCOON,ioos:station:TCOON:013:1,2017-05-14T21:18:00Z,27.4847,-97.3181,0.642,1111122 
TCOON,ioos:station:TCOON:013:1,2017-05-14T22:18:00Z,27.4847,-97.3181,0.646,1111122 
TCOON,ioos:station:TCOON:013:1,2017-05-15T00:18:00Z,27.4847,-97.3181,0.643,1111122 
TCOON,ioos:station:TCOON:013:1,2017-05-15T01:18:00Z,27.4847,-97.3181,0.647,1111122 
TCOON,ioos:station:TCOON:013:1,2017-05-15T02:24:00Z,27.4847,-97.3181,0.645,1111122 
TCOON,ioos:station:TCOON:013:1,2017-05-15T03:18:00Z,27.4847,-97.3181,0.645,1111122 
TCOON,ioos:station:TCOON:013:1,2017-05-15T04:18:00Z,27.4847,-97.3181,0.647,1111122 
TCOON,ioos:station:TCOON:013:1,2017-05-15T05:18:00Z,27.4847,-97.3181,0.646,1111122 
TCOON,ioos:station:TCOON:013:1,2017-05-15T06:18:00Z,27.4847,-97.3181,0.645,1111122 
TCOON,ioos:station:TCOON:013:1,2017-05-15T07:18:00Z,27.4847,-97.3181,0.642,1111122 
TCOON,ioos:station:TCOON:013:1,2017-05-15T08:18:00Z,27.4847,-97.3181,0.641,1111122 
TCOON,ioos:station:TCOON:013:1,2017-05-15T09:18:00Z,27.4847,-97.3181,0.641,1111122 
TCOON,ioos:station:TCOON:013:1,2017-05-15T10:24:00Z,27.4847,-97.3181,0.639,1111122 
TCOON,ioos:station:TCOON:013:1,2017-05-15T11:18:00Z,27.4847,-97.3181,0.638,1111122 
TCOON,ioos:station:TCOON:013:1,2017-05-15T12:18:00Z,27.4847,-97.3181,0.638,1111122 
TCOON,ioos:station:TCOON:013:1,2017-05-15T13:18:00Z,27.4847,-97.3181,0.629,1111122 
TCOON,ioos:station:TCOON:013:1,2017-05-15T14:18:00Z,27.4847,-97.3181,0.635,1111122 
TCOON,ioos:station:TCOON:013:1,2017-05-15T15:18:00Z,27.4847,-97.3181,0.633,1111122 
TCOON,ioos:station:TCOON:013:1,2017-05-15T16:18:00Z,27.4847,-97.3181,0.632,1111122 
TCOON,ioos:station:TCOON:013:1,2017-05-15T17:18:00Z,27.4847,-97.3181,0.619,1111122 
TCOON,ioos:station:TCOON:013:1,2017-05-15T18:24:00Z,27.4847,-97.3181,0.629,1111122 
TCOON,ioos:station:TCOON:013:1,2017-05-15T19:18:00Z,27.4847,-97.3181,0.629,1111122 
TCOON,ioos:station:TCOON:013:1,2017-05-15T21:12:00Z,27.4847,-97.3181,0.632,1111122 
TCOON,ioos:station:TCOON:013:1,2017-05-15T22:18:00Z,27.4847,-97.3181,0.635,1111122 
TCOON,ioos:station:TCOON:013:1,2017-05-15T23:18:00Z,27.4847,-97.3181,0.642,1111122 
TCOON,ioos:station:TCOON:013:1,2017-05-16T00:18:00Z,27.4847,-97.3181,0.643,1111122 
TCOON,ioos:station:TCOON:013:1,2017-05-16T01:30:00Z,27.4847,-97.3181,0.647,1111122 
TCOON,ioos:station:TCOON:013:1,2017-05-16T02:18:00Z,27.4847,-97.3181,0.649,1111122 
TCOON,ioos:station:TCOON:013:1,2017-05-16T03:18:00Z,27.4847,-97.3181,0.649,1111122 
TCOON,ioos:station:TCOON:013:1,2017-05-16T10:42:00Z,27.4847,-97.3181,0.641,1111122 
TCOON,ioos:station:TCOON:013:1,2017-05-16T13:36:00Z,27.4847,-97.3181,0.636,1111122 
TCOON,ioos:station:TCOON:013:1,2017-05-16T14:18:00Z,27.4847,-97.3181,0.631,1111122 
TCOON,ioos:station:TCOON:013:1,2017-05-16T15:18:00Z,27.4847,-97.3181,0.635,1111122 
TCOON,ioos:station:TCOON:013:1,2017-05-16T16:24:00Z,27.4847,-97.3181,0.632,1111122 
TCOON,ioos:station:TCOON:013:1,2017-05-16T17:24:00Z,27.4847,-97.3181,0.632,1111122 
TCOON,ioos:station:TCOON:013:1,2017-05-16T18:24:00Z,27.4847,-97.3181,0.629,1111122 
TCOON,ioos:station:TCOON:013:1,2017-05-16T19:36:00Z,27.4847,-97.3181,0.624,1111122 
TCOON,ioos:station:TCOON:013:1,2017-05-16T20:18:00Z,27.4847,-97.3181,0.632,1111122 
TCOON,ioos:station:TCOON:013:1,2017-05-16T21:18:00Z,27.4847,-97.3181,0.625,1111122 
TCOON,ioos:station:TCOON:013:1,2017-05-16T22:18:00Z,27.4847,-97.3181,0.629,1111122 
TCOON,ioos:station:TCOON:013:1,2017-05-16T23:18:00Z,27.4847,-97.3181,0.632,1111122 
TCOON,ioos:station:TCOON:013:1,2017-05-17T00:18:00Z,27.4847,-97.3181,0.635,1111122 
TCOON,ioos:station:TCOON:013:1,2017-05-17T01:18:00Z,27.4847,-97.3181,0.636,1111122 
TCOON,ioos:station:TCOON:013:1,2017-05-18T14:00:00Z,27.4847,-97.3181,0.666,1111122 